SV1AAW Weather Reports


Display with metric or nautical units.
time (UTC)temp
F
wind
direction
speed
MPH
gust
MPH
rain 1hr
in
rain 24hr
in
rain mn
in
humidity
%
barometer
mb
20260507212018 67 0.0 0.0 0.00 0.00 0.00 51 1020.0
20260507211036 68 346 0.0 1.0 0.00 0.00 0.00 50 1019.8
20260507210030 67 355 1.0 2.0 0.00 0.00 0.00 51 1019.9
20260507205103 68 326 1.0 2.0 0.00 0.00 0.00 50 1019.9
20260507204022 67 16 1.0 4.0 0.00 0.00 0.00 51 1019.9
20260507203020 68 347 1.0 1.0 0.00 0.00 0.00 51 1019.8
20260507202019 68 1 1.0 2.0 0.00 0.00 0.00 52 1019.7
20260507201018 68 360 1.0 2.0 0.00 0.00 0.00 51 1019.9
20260507200024 69 12 1.0 2.0 0.00 0.00 0.00 48 1019.9
20260507195021 69 353 1.0 2.0 0.00 0.00 0.00 45 1019.9
20260507194026 70 350 1.0 3.0 0.00 0.00 0.00 42 1020.1
20260507193026 71 266 1.0 2.0 0.00 0.00 0.00 41 1020.0
20260507192024 71 256 2.0 4.0 0.00 0.00 0.00 40 1019.8
20260507191020 71 269 2.0 3.0 0.00 0.00 0.00 39 1019.8
20260507190024 72 297 2.0 4.0 0.00 0.00 0.00 37 1019.7
20260507185022 71 251 2.0 7.0 0.00 0.00 0.00 38 1019.5
20260507184045 70 12 3.0 7.0 0.00 0.00 0.00 44 1019.6
20260507183040 72 14 2.0 7.0 0.00 0.00 0.00 39 1019.5
20260507182018 70 159 1.0 2.0 0.00 0.00 0.00 40 1019.4
20260507181024 69 47 1.0 3.0 0.00 0.00 0.00 55 1019.2
20260507180018 70 17 2.0 3.0 0.00 0.00 0.00 54 1019.0
20260507175024 71 19 0.0 1.0 0.00 0.00 0.00 44 1018.8
20260507174019 72 13 1.0 2.0 0.00 0.00 0.00 41 1018.8
20260507173016 72 329 0.0 1.0 0.00 0.00 0.00 37 1018.7
20260507172018 73 328 0.0 1.0 0.00 0.00 0.00 33 1018.8
20260507171026 74 316 1.0 2.0 0.00 0.00 0.00 32 1018.8
20260507170024 74 267 1.0 2.0 0.00 0.00 0.00 30 1018.8
20260507165041 74 274 1.0 3.0 0.00 0.00 0.00 30 1018.8
20260507164018 75 253 3.0 7.0 0.00 0.00 0.00 29 1018.9
20260507163038 75 241 3.0 4.0 0.00 0.00 0.00 29 1018.9
20260507162023 75 248 2.0 6.0 0.00 0.00 0.00 28 1018.8
20260507161017 75 244 3.0 6.0 0.00 0.00 0.00 29 1018.7
20260507160018 76 235 3.0 8.0 0.00 0.00 0.00 29 1018.8
20260507155018 76 232 3.0 6.0 0.00 0.00 0.00 30 1018.8
20260507154018 76 234 3.0 7.0 0.00 0.00 0.00 30 1018.7
20260507153016 76 228 3.0 7.0 0.00 0.00 0.00 30 1018.7
20260507152024 77 209 3.0 6.0 0.00 0.00 0.00 29 1018.8
20260507151022 77 222 4.0 9.0 0.00 0.00 0.00 29 1018.9
20260507150020 77 212 4.0 10.0 0.00 0.00 0.00 29 1018.9
20260507145023 77 227 5.0 11.0 0.00 0.00 0.00 30 1019.0
20260507144020 77 217 5.0 11.0 0.00 0.00 0.00 31 1019.0
20260507143019 77 205 5.0 9.0 0.00 0.00 0.00 31 1019.1
20260507142021 76 220 6.0 10.0 0.00 0.00 0.00 32 1019.1
20260507141021 76 189 5.0 10.0 0.00 0.00 0.00 34 1019.1
20260507140025 76 218 5.0 9.0 0.00 0.00 0.00 35 1019.1
20260507135020 76 236 5.0 9.0 0.00 0.00 0.00 34 1019.2
20260507134017 76 232 6.0 13.0 0.00 0.00 0.00 35 1019.3
20260507133020 77 221 6.0 13.0 0.00 0.00 0.00 36 1019.4
20260507132037 77 214 5.0 10.0 0.00 0.00 0.00 37 1019.2
20260507131024 78 208 5.0 10.0 0.00 0.00 0.00 35 1019.2
20260507130021 78 236 5.0 10.0 0.00 0.00 0.00 33 1019.2
20260507125017 79 227 5.0 10.0 0.00 0.00 0.00 33 1019.3
20260507124026 79 189 4.0 9.0 0.00 0.00 0.00 31 1019.3
20260507123019 79 185 4.0 8.0 0.00 0.00 0.00 29 1019.3
20260507122017 79 164 4.0 9.0 0.00 0.00 0.00 30 1019.3
20260507121025 78 161 4.0 8.0 0.00 0.00 0.00 34 1019.3
20260507120020 77 157 2.0 7.0 0.00 0.00 0.00 38 1019.4
20260507115045 78 116 3.0 6.0 0.00 0.00 0.00 34 1019.4
20260507114042 78 140 3.0 6.0 0.00 0.00 0.00 35 1019.4
20260507113024 78 171 4.0 8.0 0.00 0.00 0.00 31 1019.4
20260507112019 78 159 5.0 10.0 0.00 0.00 0.00 31 1019.4
20260507111018 77 164 5.0 9.0 0.00 0.00 0.00 32 1019.4
20260507110017 78 170 5.0 9.0 0.00 0.00 0.00 33 1019.5
20260507105023 76 163 4.0 9.0 0.00 0.00 0.00 36 1019.7
20260507104021 75 139 3.0 6.0 0.00 0.00 0.00 42 1019.7
20260507103017 73 131 3.0 9.0 0.00 0.00 0.00 43 1019.6
20260507102022 72 148 5.0 10.0 0.00 0.00 0.00 44 1019.6
20260507101018 72 142 6.0 11.0 0.00 0.00 0.00 45 1019.7
20260507100017 72 140 5.0 11.0 0.00 0.00 0.00 44 1019.8
20260507095023 71 131 5.0 9.0 0.00 0.00 0.00 44 1019.8
20260507094026 71 148 6.0 13.0 0.00 0.00 0.00 44 1019.8
20260507093021 70 142 5.0 10.0 0.00 0.00 0.00 45 1019.9
20260507092019 71 144 5.0 10.0 0.00 0.00 0.00 45 1019.8
20260507091017 70 147 6.0 15.0 0.00 0.00 0.00 46 1019.8
20260507090018 70 159 5.0 11.0 0.00 0.00 0.00 46 1020.0
20260507085124 69 152 5.0 13.0 0.00 0.00 0.00 47 1020.1
20260507084019 69 153 6.0 11.0 0.00 0.00 0.00 49 1020.1
20260507083024 68 147 6.0 11.0 0.00 0.00 0.00 50 1020.1
20260507082044 68 152 7.0 15.0 0.00 0.00 0.00 48 1020.1
20260507081022 68 148 6.0 11.0 0.00 0.00 0.00 49 1020.0
20260507080021 68 146 6.0 11.0 0.00 0.00 0.00 49 1020.0
20260507075018 68 144 7.0 13.0 0.00 0.00 0.00 51 1020.0
20260507074016 68 145 5.0 9.0 0.00 0.00 0.00 50 1020.1
20260507073021 68 144 5.0 10.0 0.00 0.00 0.00 50 1020.1
20260507072018 68 139 4.0 11.0 0.00 0.00 0.00 47 1020.1
20260507071018 69 132 3.0 9.0 0.00 0.00 0.00 50 1020.2
20260507070016 68 137 3.0 10.0 0.00 0.00 0.00 51 1020.1
20260507065036 68 150 4.0 10.0 0.00 0.00 0.00 51 1020.1
20260507064024 68 162 2.0 6.0 0.00 0.00 0.00 50 1020.1
20260507063023 67 165 1.0 2.0 0.00 0.00 0.00 55 1020.2
20260507062019 66 136 1.0 4.0 0.00 0.00 0.00 61 1020.3
20260507061025 64 147 1.0 2.0 0.00 0.00 0.00 64 1020.2
20260507060020 63 276 1.0 2.0 0.00 0.00 0.00 70 1020.2
20260507055016 63 20 1.0 3.0 0.00 0.00 0.00 71 1020.2
20260507054022 63 21 2.0 2.0 0.00 0.00 0.00 69 1020.0
20260507053058 63 0.0 0.0 0.00 0.00 0.00 70 1020.0
20260507052023 62 0.0 0.0 0.00 0.00 0.00 71 1019.9
20260507051021 62 0.0 0.0 0.00 0.00 0.00 70 1019.9
20260507050020 63 0.0 0.0 0.00 0.00 0.00 70 1019.7
20260507045059 62 0.0 0.0 0.00 0.00 0.00 72 1019.7
20260507044020 61 58 1.0 1.0 0.00 0.00 0.00 73 1019.5
20260507043017 60 58 0.0 2.0 0.00 0.00 0.00 74 1019.5
20260507042017 59 58 0.0 1.0 0.00 0.00 0.00 76 1019.5
20260507041025 58 63 1.0 1.0 0.00 0.00 0.00 77 1019.3
20260507040041 58 109 0.0 2.0 0.00 0.00 0.00 77 1019.1
20260507035019 57 150 0.0 1.0 0.00 0.00 0.00 76 1018.9
20260507034025 57 0.0 0.0 0.00 0.00 0.00 75 1018.8
20260507033026 57 0.0 0.0 0.00 0.00 0.00 74 1018.7
20260507032024 58 0.0 0.0 0.00 0.00 0.00 73 1018.6
20260507031022 58 0.0 0.0 0.00 0.00 0.00 72 1018.4
20260507030101 58 0.0 0.0 0.00 0.00 0.00 72 1018.3
20260507025018 58 0.0 0.0 0.00 0.00 0.00 72 1018.3
20260507024024 58 153 0.0 1.0 0.00 0.00 0.00 72 1018.4
20260507023104 58 151 0.0 1.0 0.00 0.00 0.00 71 1018.2
20260507022023 58 0.0 0.0 0.00 0.00 0.00 71 1018.2
20260507021017 59 136 1.0 1.0 0.00 0.00 0.00 71 1018.2
20260507020025 59 122 0.0 1.0 0.00 0.00 0.00 71 1018.2
20260507015021 59 65 0.0 1.0 0.00 0.00 0.00 71 1017.9
20260507014018 59 61 0.0 1.0 0.00 0.00 0.00 70 1018.0
20260507013025 59 61 1.0 1.0 0.00 0.00 0.00 70 1017.9
20260507012022 59 60 0.0 2.0 0.00 0.00 0.00 69 1017.9
20260507011018 59 60 0.0 1.0 0.00 0.00 0.00 68 1017.9
20260507010018 59 0.0 0.0 0.00 0.00 0.00 68 1017.9
20260507005106 59 60 0.0 1.0 0.00 0.00 0.00 66 1018.1
20260507004026 59 0.0 0.0 0.00 0.00 0.00 66 1018.0
20260507003023 59 60 1.0 1.0 0.00 0.00 0.00 66 1018.2
20260507002019 60 61 1.0 1.0 0.00 0.00 0.00 65 1018.1
20260507001024 60 66 1.0 2.0 0.00 0.00 0.00 64 1018.1
20260507000020 59 93 1.0 2.0 0.00 0.00 0.00 62 1018.1
20260506235101 60 0.0 0.0 0.00 0.00 0.00 61 1018.1
20260506234024 60 149 0.0 2.0 0.00 0.00 0.00 62 1018.1
20260506233021 60 0.0 0.0 0.00 0.00 0.00 61 1018.1
20260506232018 60 149 0.0 1.0 0.00 0.00 0.00 61 1018.2
20260506231016 60 149 0.0 1.0 0.00 0.00 0.00 62 1018.3
20260506230025 60 149 1.0 2.0 0.00 0.00 0.00 64 1018.2
20260506224024 60 153 0.0 1.0 0.00 0.00 0.00 63 1018.5
20260506223025 61 0.0 0.0 0.00 0.00 0.00 61 1018.6
20260506222023 61 0.0 0.0 0.00 0.00 0.00 60 1018.6
20260506221024 61 153 1.0 1.0 0.00 0.00 0.00 59 1018.6
20260506220021 60 0.0 0.0 0.00 0.00 0.00 59 1018.7
20260506215020 61 0.0 0.0 0.00 0.00 0.00 57 1018.7
20260506214020 61 0.0 0.0 0.00 0.00 0.00 54 1018.7
20260506213037 61 0.0 0.0 0.00 0.00 0.00 53 1018.6